Location: Para Rapids
(2.5833°N, 113.6833°E)
Time: 04:49:46
(UTC+00:00)

Daily predictions for brighter satellites

Satellite Brightness Start Highest point End
(mag) Time Altitude Azimuth Time Altitude Azimuth Time Altitude Azimuth
ARGOS 4.1 10:29:04 10° SE 10:33:29 26° ENE 10:37:52 10° NNE
Cosmos 1697 Rocket 4.0 10:29:48 10° NNW 10:35:08 46° WSW 10:40:31 10° S
ARIANE 3 DEB 1.3 10:33:47 10° W 10:36:14 80° N 10:38:26 10° E
CZ-3B R/B 4.1 10:27:27 10° SW 10:36:15 52° SSE 10:44:46 10° E
Cosmos 1666 3.2 10:34:39 10° NNW 10:38:18 62° W 10:42:01 10° S
Cosmos 1980 Rocket 2.2 10:36:12 10° NNW 10:41:48 82° ENE 10:47:23 10° SSE
Atlas Centaur 2 3.9 10:41:05 10° WSW 10:43:23 16° SSW 10:45:40 10° S
YAOGAN 1 4.3 10:43:51 10° E 10:45:32 12° ENE 10:47:13 10° NE
Cosmos 1515 3.7 10:43:27 10° S 10:47:13 87° W 10:50:58 10° N
GMS 1 Rocket B 4.5 10:44:27 10° NW 10:48:16 49° NNE 10:52:14 10° ESE
BLOCK DM-SL R/B 1.8 10:47:41 10° WSW 10:49:26 49° S 10:52:49 10° E
Cosmos 1707 Rocket 4.5 10:45:55 10° SSE 10:49:37 28° E 10:53:18 10° NE
CZ-4B R/B 3.3 10:49:36 10° E 10:49:58 10° ESE 10:50:21 10° ESE
OAO 3 Rocket 3.4 10:48:46 10° WSW 10:53:21 62° NW 10:57:47 11° NE
Cosmos 44 Rocket 4.5 10:52:02 10° NNE 10:55:12 18° ENE 10:58:20 10° ESE
SJ-11-01 4.4 10:54:22 10° SSE 10:58:59 52° ENE 11:03:35 10° N
Meteor 1-11 Rocket 4.0 10:54:22 10° N 10:59:59 52° E 11:05:43 10° SSE
Cosmos 2266 Rocket 4.0 10:53:42 10° N 11:00:03 70° E 11:06:21 10° S
SL-16 R/B 3.3 10:56:08 10° NNE 11:00:24 22° ENE 11:04:38 10° ESE
Aurora 2 Rocket 4.0 10:58:43 10° NNW 11:03:00 30° NNE 11:07:21 15° E
Cosmos 1544 3.0 10:59:34 10° N 11:03:11 83° E 11:06:50 10° S
Cosmos 1536 3.4 11:00:13 10° NNE 11:03:54 36° E 11:07:33 10° SSE
ARIANE 5 DEB (SYLDA) 3.9 10:58:06 10° W 11:04:25 82° N 11:07:33 15° E
Meteor 1-19 Rocket 4.3 11:02:31 10° S 11:08:34 81° E 11:14:33 10° N
CZ-4C R/B 3.3 11:00:41 10° N 11:09:01 56° ENE 11:17:24 10° SE
SL-08 RB Rocket 4.0 11:07:00 10° SSE 11:11:29 47° ENE 11:15:55 10° N
Ariane V96 H10-3 4.1 11:11:43 10° WSW 11:13:35 20° S 11:15:54 10° SE
SL-24 R/B - RUBIN 2 4.2 11:10:03 10° NNW 11:14:19 59° WSW 11:18:54 10° SSE
Cosmos 2278 4.2 11:11:54 10° NNW 11:17:29 64° WSW 11:23:04 10° S
CZ-4 R/B 2.1 11:14:26 10° SE 11:18:11 32° ENE 11:20:11 21° NNE
Okean O Rocket 1.6 11:15:24 10° S 11:19:50 87° WSW 11:24:17 10° NNW
CZ-4B R/B 3.4 11:15:06 10° S 11:20:37 74° WSW 11:26:01 10° NNW
Spelda 2.1 11:19:27 10° W 11:21:41 81° N 11:22:12 48° ENE
H-2A R/B 3.2 11:18:41 10° SE 11:21:32 27° E 11:21:32 27° E
BREEZE M DEB (TANK) 4.3 11:19:08 10° N 11:21:43 16° NNE 11:21:43 16° NNE
Ariane H10-3 4.2 11:20:29 10° WNW 11:24:46 67° N 11:41:07 18° E
Cosmos 1538 Rocket 4.4 11:20:59 10° SSW 11:26:18 65° WNW 11:31:36 10° N
ARIANE 5 DEB (SYLDA) 4.5 11:23:59 10° SW 11:26:21 24° S 11:30:35 11° ESE
Cosmos 1378 4.2 11:24:04 10° SSE 11:26:35 26° ESE 11:26:35 26° ESE
deb Chang Zheng 4 4.3 11:25:00 10° S 11:29:10 53° WSW 11:33:21 10° NNW
Cosmos 1933 Rocket 4.2 11:25:34 10° NNW 11:29:48 57° W 11:34:04 10° S
Cosmos 1743 2.6 11:31:11 21° N 11:33:40 67° E 11:37:31 10° S
Cosmos 2298 Rocket 4.1 11:29:09 10° NNW 11:34:28 82° WSW 11:39:48 10° S
Hubble Space Telescope 2.0 11:32:10 10° W 11:35:51 31° NNW 11:37:02 26° N
GPS 2-18 Rocket1 3.3 11:35:35 10° W 11:39:06 49° NNW 11:39:24 47° N
H-2A R/B 4.4 10:34:09 10° NW 11:40:00 52° NNE 11:46:31 29° ENE
ARIANE 5 R/B 2.8 11:36:44 10° WSW 11:40:14 33° S 11:40:30 31° S
Delta 7925 Rocket 4.3 11:36:21 10° SW 11:40:36 34° SSE 11:41:57 29° ESE
Cosmos 2297 Rocket 2.7 11:35:38 10° S 11:40:47 37° ESE 11:41:26 36° E
Cosmos 1869 Rocket 3.3 11:43:15 30° N 11:45:21 78° E 11:49:43 10° S
Cosmos 1680 Rocket 3.7 11:40:38 10° S 11:45:41 46° ESE 11:46:10 45° E
Cosmos 1607 4.1 11:44:45 10° S 11:50:59 55° ESE 11:52:27 45° ENE
Cosmos 1818 3.5 11:47:26 10° NNW 11:52:51 87° WSW 11:58:13 10° SSE
PSLV R/B 4.1 11:53:12 46° N 11:54:19 70° WNW 11:58:29 10° SSW
